WA6MHA-11 Weather Reports


Display with metric or nautical units.
time (UTC)temp
F
wind
direction
speed
MPH
gust
MPH
rain 1hr
in
rain 24hr
in
rain mn
in
humidity
%
barometer
mb
20260507072937 55 229 0.0 0.0 0.00 0.00 0.00 51 1018.5
20260507072133 56 279 0.0 0.0 0.00 0.00 0.00 51 1018.6
20260507071731 56 288 0.0 0.0 0.00 0.00 0.00 51 1018.6
20260507070129 56 279 0.0 0.0 0.00 0.00 0.00 50 1018.5
20260507065727 56 274 0.0 0.0 0.00 0.00 0.00 50 1018.5
20260507064926 57 270 0.0 0.0 0.00 0.00 0.00 50 1018.4
20260507064521 57 274 0.0 0.0 0.00 0.00 0.00 50 1018.5
20260507064120 57 202 0.0 0.0 0.00 0.00 0.00 50 1018.5
20260507063718 57 182 0.0 0.0 0.00 0.00 0.00 50 1018.5
20260507063317 57 234 0.0 0.0 0.00 0.00 0.00 50 1018.6
20260507062515 57 292 0.0 0.0 0.00 0.00 0.00 49 1018.6
20260507062114 57 182 0.0 0.0 0.00 0.00 0.00 49 1018.6
20260507061713 57 232 0.0 0.0 0.00 0.00 0.00 49 1018.5
20260507061311 57 42 0.0 0.0 0.00 0.00 0.00 49 1018.4
20260507055709 58 78 1.0 1.0 0.00 0.00 0.00 48 1018.5
20260507055306 58 42 0.0 1.0 0.00 0.00 0.00 48 1018.5
20260507054903 58 78 0.0 0.0 0.00 0.00 0.00 48 1018.5
20260507054502 58 85 0.0 0.0 0.00 0.00 0.00 48 1018.5
20260507054100 58 81 1.0 1.0 0.00 0.00 0.00 48 1018.4
20260507053659 58 135 0.0 0.0 0.00 0.00 0.00 48 1018.5
20260507053258 58 103 0.0 1.0 0.00 0.00 0.00 48 1018.5
20260507052857 59 135 2.0 2.0 0.00 0.00 0.00 47 1018.5
20260507052455 59 137 2.0 2.0 0.00 0.00 0.00 47 1018.5
20260507052054 59 135 2.0 2.0 0.00 0.00 0.00 47 1018.5
20260507051653 59 135 1.0 2.0 0.00 0.00 0.00 47 1018.5
20260507051252 59 135 2.0 2.0 0.00 0.00 0.00 47 1018.5
20260507050850 59 135 1.0 2.0 0.00 0.00 0.00 47 1018.4
20260507050449 59 135 2.0 2.0 0.00 0.00 0.00 47 1018.5
20260507044846 60 85 1.0 2.0 0.00 0.00 0.00 46 1018.4
20260507044041 60 135 3.0 4.0 0.00 0.00 0.00 46 1018.3
20260507043239 60 135 2.0 3.0 0.00 0.00 0.00 45 1018.3
20260507042441 61 78 1.0 2.0 0.00 0.00 0.00 45 1018.2
20260507042036 61 130 2.0 2.0 0.00 0.00 0.00 45 1018.2
20260507041233 61 135 2.0 3.0 0.00 0.00 0.00 44 1018.2
20260507040832 61 135 3.0 3.0 0.00 0.00 0.00 44 1018.1
20260507040029 62 135 2.0 2.0 0.00 0.00 0.00 43 1018.0
20260507034824 62 121 2.0 2.0 0.00 0.00 0.00 43 1017.8
20260507034427 62 87 2.0 3.0 0.00 0.00 0.00 42 1017.9
20260507034022 63 83 3.0 3.0 0.00 0.00 0.00 42 1017.8
20260507033621 63 92 3.0 4.0 0.00 0.00 0.00 41 1017.8
20260507033222 63 85 3.0 4.0 0.00 0.00 0.00 41 1017.8
20260507032417 64 81 2.0 2.0 0.00 0.00 0.00 40 1017.6
20260507032015 64 132 2.0 3.0 0.00 0.00 0.00 40 1017.6
20260507031213 64 105 3.0 5.0 0.00 0.00 0.00 39 1017.4
20260507030812 65 130 4.0 4.0 0.00 0.00 0.00 39 1017.5
20260507030410 65 135 3.0 3.0 0.00 0.00 0.00 38 1017.5
20260507025207 66 112 4.0 4.0 0.00 0.00 0.00 37 1017.2
20260507024805 66 126 2.0 4.0 0.00 0.00 0.00 36 1017.2
20260507024405 66 112 4.0 6.0 0.00 0.00 0.00 36 1017.1
20260507024003 67 108 4.0 6.0 0.00 0.00 0.00 35 1017.1
20260507023601 67 110 4.0 7.0 0.00 0.00 0.00 35 1017.0
20260507023202 67 130 4.0 5.0 0.00 0.00 0.00 34 1016.9
20260507022804 68 132 3.0 11.0 0.00 0.00 0.00 34 1016.9
20260507022403 68 137 5.0 15.0 0.00 0.00 0.00 34 1016.8
20260507021957 68 132 12.0 15.0 0.00 0.00 0.00 33 1016.8
20260507021555 69 135 8.0 12.0 0.00 0.00 0.00 33 1016.7
20260507021153 69 135 6.0 10.0 0.00 0.00 0.00 32 1016.7
20260507020752 70 135 10.0 11.0 0.00 0.00 0.00 32 1016.7
20260507015950 71 135 7.0 10.0 0.00 0.00 0.00 31 1016.6
20260507015549 71 137 6.0 11.0 0.00 0.00 0.00 31 1016.5
20260507015153 72 135 8.0 10.0 0.00 0.00 0.00 31 1016.5
20260507014746 72 132 7.0 9.0 0.00 0.00 0.00 30 1016.5
20260507013943 73 135 9.0 9.0 0.00 0.00 0.00 30 1016.5
20260507013545 74 132 6.0 9.0 0.00 0.00 0.00 29 1016.5
20260507012339 77 135 7.0 9.0 0.00 0.00 0.00 29 1016.5
20260507010735 79 190 4.0 8.0 0.00 0.00 0.00 28 1016.5
20260507010332 79 191 6.0 7.0 0.00 0.00 0.00 28 1016.3
20260507005930 79 204 7.0 7.0 0.00 0.00 0.00 27 1016.4
20260507005529 79 22 2.0 12.0 0.00 0.00 0.00 27 1016.3
20260507005129 79 180 3.0 7.0 0.00 0.00 0.00 27 1016.4
20260507003925 79 185 4.0 10.0 0.00 0.00 0.00 27 1016.3
20260507003523 80 200 6.0 9.0 0.00 0.00 0.00 27 1016.3
20260507003121 80 184 1.0 8.0 0.00 0.00 0.00 26 1016.4
20260507002720 80 154 2.0 9.0 0.00 0.00 0.00 26 1016.4
20260507001923 81 191 4.0 8.0 0.00 0.00 0.00 26 1016.4
20260507001516 81 185 9.0 12.0 0.00 0.00 0.00 26 1016.3
20260507001116 81 230 3.0 9.0 0.00 0.00 0.00 26 1016.4
20260507000714 82 174 4.0 10.0 0.00 0.00 0.00 26 1016.3
20260507000314 81 172 5.0 10.0 0.00 0.00 0.00 25 1016.4
20260506235913 82 180 6.0 9.0 0.00 0.00 0.00 26 1016.2
20260506235543 82 182 2.0 6.0 0.00 0.00 0.00 25 1016.3
20260506235511 82 182 2.0 6.0 0.00 0.00 0.00 25 1016.3
20260506234707 82 150 3.0 10.0 0.00 0.00 0.00 25 1016.4
20260506233504 82 166 7.0 8.0 0.00 0.00 0.00 25 1016.3
20260506233103 82 139 6.0 8.0 0.00 0.00 0.00 25 1016.3
20260506232701 82 231 4.0 6.0 0.00 0.00 0.00 25 1016.3
20260506231858 80 128 3.0 9.0 0.00 0.00 0.00 25 1016.4
20260506231457 80 168 2.0 9.0 0.00 0.00 0.00 25 1016.4
20260506231056 81 135 8.0 11.0 0.00 0.00 0.00 24 1016.4
20260506230655 82 112 3.0 11.0 0.00 0.00 0.00 24 1016.4
20260506230254 82 155 8.0 9.0 0.00 0.00 0.00 24 1016.5
20260506225852 84 216 4.0 10.0 0.00 0.00 0.00 25 1016.5
20260506225049 85 151 1.0 7.0 0.00 0.00 0.00 24 1016.6
20260506224649 85 144 3.0 10.0 0.00 0.00 0.00 24 1016.5
20260506224249 84 172 4.0 9.0 0.00 0.00 0.00 24 1016.6
20260506223846 84 187 5.0 10.0 0.00 0.00 0.00 24 1016.7
20260506223444 84 139 8.0 11.0 0.00 0.00 0.00 24 1016.7
20260506222642 85 182 4.0 10.0 0.00 0.00 0.00 24 1017.0
20260506221839 85 120 3.0 10.0 0.00 0.00 0.00 24 1017.1
20260506221439 85 186 8.0 9.0 0.00 0.00 0.00 24 1017.0
20260506220635 83 200 4.0 9.0 0.00 0.00 0.00 24 1017.1
20260506220234 84 168 2.0 9.0 0.00 0.00 0.00 24 1017.1
20260506215032 85 160 5.0 9.0 0.00 0.00 0.00 25 1017.3
20260506214629 85 45 3.0 6.0 0.00 0.00 0.00 25 1017.3
20260506213827 85 177 7.0 8.0 0.00 0.00 0.00 25 1017.4
20260506213425 85 157 2.0 5.0 0.00 0.00 0.00 24 1017.5
20260506213024 85 210 2.0 7.0 0.00 0.00 0.00 24 1017.5
20260506212623 85 154 1.0 12.0 0.00 0.00 0.00 26 1017.6
20260506212221 85 157 5.0 8.0 0.00 0.00 0.00 26 1017.6
20260506211420 85 150 7.0 9.0 0.00 0.00 0.00 26 1017.6
20260506211017 85 209 1.0 7.0 0.00 0.00 0.00 26 1017.7
20260506210617 85 145 3.0 0.0 0.00 0.00 0.00 1017.7
20260506210217 85 207 6.0 8.0 0.00 0.00 0.00 26 1017.7
20260506205412 85 157 4.0 8.0 0.00 0.00 0.00 26 1017.8
20260506205011 85 0 3.0 9.0 0.00 0.00 0.00 26 1017.8
20260506204610 84 137 6.0 8.0 0.00 0.00 0.00 26 1017.8
20260506204209 84 163 5.0 10.0 0.00 0.00 0.00 27 1017.9
20260506203807 84 135 10.0 10.0 0.00 0.00 0.00 27 1017.9
20260506202603 85 135 6.0 7.0 0.00 0.00 0.00 27 1017.9
20260506202203 84 182 5.0 7.0 0.00 0.00 0.00 27 1018.0
20260506201400 82 132 7.0 7.0 0.00 0.00 0.00 27 1018.2
20260506200958 81 186 5.0 12.0 0.00 0.00 0.00 27 1018.3
20260506200155 80 160 1.0 11.0 0.00 0.00 0.00 27 1018.3
20260506195754 78 135 4.0 12.0 0.00 0.00 0.00 27 1018.4
20260506195358 79 85 10.0 11.0 0.00 0.00 0.00 27 1018.3
20260506194550 78 135 10.0 18.0 0.00 0.00 0.00 27 1018.3
20260506194149 78 135 10.0 10.0 0.00 0.00 0.00 27 1018.4
20260506193748 78 146 11.0 12.0 0.00 0.00 0.00 27 1018.4
20260506193347 79 137 6.0 16.0 0.00 0.00 0.00 26 1018.5
20260506192143 83 117 6.0 11.0 0.00 0.00 0.00 26 1018.6
20260506191745 84 135 6.0 7.0 0.00 0.00 0.00 25 1018.5
20260506190939 85 270 3.0 4.0 0.00 0.00 0.00 26 1018.8
20260506190539 84 174 1.0 6.0 0.00 0.00 0.00 26 1018.8
20260506190136 84 216 4.0 6.0 0.00 0.00 0.00 26 1018.8
20260506185734 81 270 4.0 4.0 0.00 0.00 0.00 26 1018.8
20260506184531 82 41 4.0 6.0 0.00 0.00 0.00 26 1018.8
20260506183729 84 279 6.0 8.0 0.00 0.00 0.00 26 1018.9
20260506183327 83 245 3.0 11.0 0.00 0.00 0.00 26 1018.9
20260506182926 82 270 3.0 8.0 0.00 0.00 0.00 27 1019.0
20260506182525 81 90 2.0 9.0 0.00 0.00 0.00 27 1018.9
20260506182124 80 153 7.0 9.0 0.00 0.00 0.00 27 1019.0
20260506180521 79 236 4.0 7.0 0.00 0.00 0.00 27 1019.0
20260506180120 77 267 7.0 9.0 0.00 0.00 0.00 27 1019.1
20260506175716 75 292 8.0 10.0 0.00 0.00 0.00 27 1019.1
20260506175318 76 6 9.0 10.0 0.00 0.00 0.00 27 1019.1
20260506174515 76 40 1.0 9.0 0.00 0.00 0.00 28 1019.2
20260506173709 74 28 5.0 10.0 0.00 0.00 0.00 28 1019.3
20260506173313 74 28 4.0 10.0 0.00 0.00 0.00 28 1019.2
20260506173311 74 28 4.0 10.0 0.00 0.00 0.00 28 1019.2
20260506172907 74 25 3.0 8.0 0.00 0.00 0.00 28 1019.2
20260506172506 75 182 1.0 3.0 0.00 0.00 0.00 29 1019.2
20260506172107 75 355 4.0 7.0 0.00 0.00 0.00 29 1019.1
20260506171301 78 140 3.0 3.0 0.00 0.00 0.00 30 1019.1
20260506170900 78 182 0.0 2.0 0.00 0.00 0.00 30 1019.2
20260506170503 78 299 1.0 2.0 0.00 0.00 0.00 31 1019.2
20260506165656 76 249 3.0 3.0 0.00 0.00 0.00 32 1019.1
20260506165256 76 310 0.0 3.0 0.00 0.00 0.00 33 1019.0
20260506163658 73 27 3.0 4.0 0.00 0.00 0.00 35 1019.1
20260506163251 73 81 3.0 5.0 0.00 0.00 0.00 35 1019.1
20260506162854 73 121 4.0 5.0 0.00 0.00 0.00 36 1019.1
20260506162446 72 177 1.0 5.0 0.00 0.00 0.00 37 1019.1
20260506162058 71 135 4.0 7.0 0.00 0.00 0.00 37 1019.1
20260506161649 72 135 7.0 7.0 0.00 0.00 0.00 38 1019.1
20260506160842 72 211 1.0 5.0 0.00 0.00 0.00 40 1019.2
20260506160441 72 122 3.0 3.0 0.00 0.00 0.00 40 1019.2
20260506155637 70 150 1.0 5.0 0.00 0.00 0.00 42 1019.3
20260506155237 70 135 3.0 3.0 0.00 0.00 0.00 43 1019.3
20260506154835 69 300 0.0 4.0 0.00 0.00 0.00 44 1019.2
20260506154512 68 339 1.0 3.0 0.00 0.00 0.00 45 1019.3
20260506154433 68 339 1.0 3.0 0.00 0.00 0.00 45 1019.3
20260506154032 67 135 1.0 5.0 0.00 0.00 0.00 45 1019.4
20260506153631 67 117 5.0 5.0 0.00 0.00 0.00 46 1019.3
20260506153229 67 109 0.0 3.0 0.00 0.00 0.00 47 1019.4
20260506152427 67 182 0.0 1.0 0.00 0.00 0.00 49 1019.4
20260506152025 67 135 2.0 3.0 0.00 0.00 0.00 50 1019.5
20260506151223 66 112 1.0 2.0 0.00 0.00 0.00 52 1019.5
20260506151016 66 321 0.0 1.0 0.00 0.00 0.00 52 1019.5
20260506150822 66 321 0.0 1.0 0.00 0.00 0.00 52 1019.5
20260506150424 65 78 0.0 1.0 0.00 0.00 0.00 53 1019.5
20260506145617 64 225 0.0 1.0 0.00 0.00 0.00 54 1019.4
20260506145218 63 232 0.0 1.0 0.00 0.00 0.00 55 1019.5
20260506144046 60 315 0.0 0.0 0.00 0.00 0.00 56 1019.5
20260506144013 60 315 0.0 0.0 0.00 0.00 0.00 56 1019.5
20260506143613 59 166 0.0 0.0 0.00 0.00 0.00 57 1019.5
20260506142808 58 310 0.0 0.0 0.00 0.00 0.00 58 1019.5
20260506142411 57 279 0.0 1.0 0.00 0.00 0.00 58 1019.5
20260506142006 56 288 1.0 1.0 0.00 0.00 0.00 58 1019.4
20260506141605 54 279 0.0 1.0 0.00 0.00 0.00 58 1019.5
20260506141204 53 297 0.0 1.0 0.00 0.00 0.00 58 1019.4
20260506140802 52 30 1.0 1.0 0.00 0.00 0.00 58 1019.3
20260506140000 51 42 0.0 0.0 0.00 0.00 0.00 59 1019.1
20260506135157 50 270 0.0 0.0 0.00 0.00 0.00 59 1019.2
20260506134756 49 283 0.0 0.0 0.00 0.00 0.00 59 1019.1
20260506134355 49 270 0.0 0.0 0.00 0.00 0.00 59 1019.0
20260506133552 47 274 0.0 0.0 0.00 0.00 0.00 59 1019.1
20260506131946 45 279 0.0 0.0 0.00 0.00 0.00 59 1019.0
20260506131545 44 303 0.0 0.0 0.00 0.00 0.00 59 1019.0
20260506130743 44 235 0.0 0.0 0.00 0.00 0.00 58 1018.8
20260506130343 45 135 0.0 0.0 0.00 0.00 0.00 58 1018.8
20260506125942 45 202 0.0 0.0 0.00 0.00 0.00 58 1018.7
20260506125539 710 234 0.0 1.0 0.00 0.00 0.00 58 1018.6
20260506124335 44 324 0.0 2.0 0.00 0.00 0.00 58 1018.8
20260506123938 44 346 2.0 2.0 0.00 0.00 0.00 58 1018.8
20260506123535 45 312 0.0 0.0 0.00 0.00 0.00 58 1018.6
20260506123332 45 308 0.0 0.0 0.00 0.00 0.00 58 1018.6
20260506123131 45 308 0.0 0.0 0.00 0.00 0.00 58 1018.6
20260506122730 45 288 0.0 0.0 0.00 0.00 0.00 58 1018.6
20260506122330 45 81 0.0 0.0 0.00 0.00 0.00 58 1018.5
20260506121930 46 216 0.0 0.0 0.00 0.00 0.00 58 1.0
20260506121529 46 237 0.0 0.0 0.00 0.00 0.00 58 1018.4
20260506120723 46 180 0.0 0.0 0.00 0.00 0.00 58 1018.4
20260506120322 45 182 0.0 1.0 0.00 0.00 0.00 58 1018.4
20260506115921 45 227 0.0 1.0 0.00 0.00 0.00 58 1018.4
20260506115520 45 274 0.0 1.0 0.00 0.00 0.00 58 1018.5
20260506115119 45 337 0.0 1.0 0.00 0.00 0.00 58 1018.4
20260506114719 46 337 0.0 0.0 0.00 0.00 0.00 58 1018.3
20260506114316 45 274 0.0 0.0 0.00 0.00 0.00 58 1018.3
20260506113915 45 274 0.0 0.0 0.00 0.00 0.00 58 1018.3
20260506113513 46 274 0.0 0.0 0.00 0.00 0.00 58 1018.2
20260506113112 46 306 0.0 0.0 0.00 0.00 0.00 58 1018.3
20260506112711 46 315 0.0 0.0 0.00 0.00 0.00 58 1018.3
20260506112310 46 306 0.0 0.0 0.00 0.00 0.00 58 1018.2
20260506111908 46 42 0.0 0.0 0.00 0.00 0.00 58 1018.2
20260506111541 46 42 0.0 0.0 0.00 0.00 0.00 58 1018.3
20260506111507 46 42 0.0 0.0 0.00 0.00 0.00 58 1018.3
20260506111142 46 310 0.0 0.0 0.00 0.00 0.00 58 1018.3
20260506111106 46 310 0.0 0.0 0.00 0.00 0.00 58 1018.3
20260506110705 46 301 0.0 0.0 0.00 0.00 0.00 58 1018.3
20260506110303 46 228 0.0 0.0 0.00 0.00 0.00 58 1018.3
20260506105902 46 231 0.0 0.0 0.00 0.00 0.00 58 1018.3
20260506105500 46 342 0.0 0.0 0.00 0.00 0.00 57 1018.4
20260506104658 46 232 0.0 0.0 0.00 0.00 0.00 57 1018.3
20260506104257 46 227 0.0 0.0 0.00 0.00 0.00 57 1018.3
20260506103856 46 230 0.0 0.0 0.00 0.00 0.00 57 1018.3
20260506103053 46 306 0.0 0.0 0.00 0.00 0.00 57 1018.3
20260506102651 46 306 0.0 0.0 0.00 0.00 0.00 57 1018.4
20260506102250 47 306 0.0 0.0 0.00 0.00 0.00 57 1018.4
20260506101451 47 315 0.0 0.0 0.00 0.00 0.00 57 1018.3
20260506100645 47 315 0.0 0.0 0.00 0.00 0.00 57 1018.3
20260506100244 48 274 0.0 0.0 0.00 0.00 0.00 57 1018.3
20260506095843 48 231 0.0 0.0 0.00 0.00 0.00 57 1018.3
20260506095442 48 232 0.0 0.0 0.00 0.00 0.00 57 1018.3
20260506095040 48 315 0.0 0.0 0.00 0.00 0.00 57 1018.3
20260506094639 48 279 0.0 1.0 0.00 0.00 0.00 57 1018.3
20260506093839 48 274 0.0 0.0 0.00 0.00 0.00 57 1018.6
20260506092633 48 335 0.0 0.0 0.00 0.00 0.00 57 1018.5
20260506092233 48 353 0.0 0.0 0.00 0.00 0.00 57 1018.5
20260506091829 48 310 0.0 0.0 0.00 0.00 0.00 56 1018.4
20260506091428 48 279 0.0 0.0 0.00 0.00 0.00 56 1018.4
20260506090626 48 306 0.0 1.0 0.00 0.00 0.00 56 1018.6
20260506090225 48 312 0.0 0.0 0.00 0.00 0.00 56 1018.6
20260506085827 49 274 0.0 0.0 0.00 0.00 0.00 56 1018.5
20260506085423 49 279 0.0 0.0 0.00 0.00 0.00 56 1018.6
20260506085021 49 274 0.0 0.0 0.00 0.00 0.00 56 1018.6
20260506084620 49 283 0.0 0.0 0.00 0.00 0.00 56 1018.7
20260506084218 49 283 0.0 0.0 0.00 0.00 0.00 56 1018.7
20260506083817 49 234 0.0 1.0 0.00 0.00 0.00 56 1018.8
20260506083416 49 301 0.0 0.0 0.00 0.00 0.00 56 1018.8
20260506083014 49 310 0.0 0.0 0.00 0.00 0.00 56 1018.9
20260506082613 49 310 0.0 1.0 0.00 0.00 0.00 56 1018.8
20260506081410 49 233 0.0 1.0 0.00 0.00 0.00 56 1018.8
20260506080205 49 274 0.0 0.0 0.00 0.00 0.00 56 1018.8